• MPC Preparation (Info)

  • MPEC 2022-K57 : 2022 KX

    The following Minor Planet Electronic Circular may be linked-to from your own Web pages, but must not otherwise be redistributed electronically.

    A form allowing access to any MPEC is at the bottom of this page.


    Read MPEC 2022-K56 Read MPEC 2022-K58


    M.P.E.C. 2022-K57                                  Issued 2022 May 23, 23:36 UT
    
         The Minor Planet Electronic Circulars contain information on unusual
             minor planets and routine data on comets.  They are published
        on behalf of Division F of the International Astronomical Union by the
              Minor Planet Center, Smithsonian Astrophysical Observatory,
                              Cambridge, MA 02138, U.S.A.
    
                 Prepared using the Tamkin Foundation Computer Network
    
                                  MPC@CFA.HARVARD.EDU
                URL https://www.minorplanetcenter.net/    ISSN 1523-6714
    
                                     2022 KX                                 
    
    
    Observations:
         K22K00X  C2022 05 22.36323014 47 12.110-23 20 57.31         19.04GVEK057F52
         K22K00X  C2022 05 22.39600114 46 59.146-23 15 19.61         18.98GVEK057F52
         K22K00X* C2022 05 23.32284414 41 01.630-19 38 12.66         18.58GVEK057703
         K22K00X  C2022 05 23.32813514 40 58.451-19 36 31.64         18.65GVEK057703
         K22K00X  C2022 05 23.33343514 40 55.146-19 34 47.86         18.70GVEK057703
         K22K00X  C2022 05 23.33872714 40 51.884-19 33 04.68         18.42GVEK057703
         K22K00X mC2022 05 23.35786114 40 40.112-19 26 46.79               VEK057I52
         K22K00X mC2022 05 23.35813014 40 39.932-19 26 41.64         18.20GVEK057I52
         K22K00X mC2022 05 23.35839814 40 39.767-19 26 36.06         18.37GVEK057I52
         K22K00X mC2022 05 23.35866914 40 39.608-19 26 30.62         18.30GVEK057I52
         K22K00X mC2022 05 23.37771014 40 27.901-19 20 07.76         18.74GVEK057I52
         K22K00X mC2022 05 23.37797914 40 27.746-19 20 02.26         18.57GVEK057I52
         K22K00X mC2022 05 23.37825314 40 27.577-19 19 56.46         18.24GVEK057I52
         K22K00X mC2022 05 23.37852214 40 27.415-19 19 51.13         18.11GVEK057I52
         K22K00X KC2022 05 23.80363 14 36 41.30 -16 26 13.1          18.5 GVEK057221
         K22K00X KC2022 05 23.81212 14 36 34.08 -16 22 14.6          18.6 GVEK057221
         K22K00X KC2022 05 23.82091 14 36 26.52 -16 18 05.2          18.6 GVEK057221
         K22K00X KC2022 05 23.83029614 36 16.75 -16 20 44.9          17.9 GVEK057L01
         K22K00X KC2022 05 23.83351314 36 14.00 -16 19 12.2          18.3 GVEK057L01
         K22K00X KC2022 05 23.83438814 36 13.29 -16 18 47.4          18.2 GVEK057L01
         K22K00X KC2022 05 23.83548514 36 12.38 -16 18 15.6          18.2 GVEK057L01
         K22K00X KC2022 05 23.83639414 36 11.59 -16 17 49.3          18.2 GVEK057L01
         K22K00X KC2022 05 23.83770114 36 10.48 -16 17 13.1          17.7 GVEK057595
         K22K00X KC2022 05 23.84459614 36 04.61 -16 13 53.7                VEK057595
         K22K00X KC2022 05 23.84923 14 36 00.15 -16 11 14.1          18.7 GXEK057K96
         K22K00X pC2022 05 23.85152414 35 58.66 -16 10 32.2          18.0 GVEK057595
         K22K00X KC2022 05 23.85512 14 35 55.00 -16 08 21.1          18.8 GXEK057K96
         K22K00X KC2022 05 23.86088 14 35 49.93 -16 05 31.9          18.0 GXEK057K96
         K22K00X KC2022 05 23.87690414 35 39.69 -15 57 49.2          18.1 GXEK057C95
         K22K00X KC2022 05 23.88288614 35 32.34 -15 54 50.0          17.8 GVEK057G17
         K22K00X KC2022 05 23.88580414 35 31.76 -15 53 21.0                XEK057C95
         K22K00X KC2022 05 23.89488314 35 21.55 -15 48 45.1          17.5 GVEK057G17
         K22K00X KC2022 05 23.95417 14 34 27.13 -15 17 35.3          18.3 GVEK057104
         K22K00X KC2022 05 23.95996 14 34 21.69 -15 14 25.4          18.8 GVEK057104
    
    Observer details:
    104 San Marcello Pistoiese.  Observers P. Bacci, M. Maestripieri.  Measurers
        P. Bacci, L. Tesi, G. Fagioli.  0.60-m F4 Reflector + CCD.
    221 IAS Observatory, Hakos.  Observer D. Husar.  0.20-m f/2.8 reflector + CCD.
    595 Farra d'Isonzo.  Observer E. Pettarin.  0.61-m f/4.5 reflector + CCD.
    703 Catalina Sky Survey.  Observer A. Serrano.  Measurers E. J. Christensen,
        D. Fay, J. B. Fazekas, D. C. Fuls, A. R. Gibbs, A. D. Grauer, H. Groeller,
        J. K. Hogan, R. A. Kowalski, S. M. Larson, G. J. Leonard, D. Rankin, R. L.
        Seaman, A. Serrano, F. C. Shelly, K. W. Wierzchos.  0.68-m Schmidt + 10K
        CCD.
    C95 SATINO Remote Observatory, Haute Provence.  Observer J. Jahn.  0.60-m
        f/3.2 Newtonian reflector + CCD.
    F52 Pan-STARRS 2, Haleakala.  Observers J. Bulger, K. Chambers, T. Dukes, T.
        Lowe, A. Schultz, I. Smith.  Measurers S. Chastel, M. Huber, Y.
        Ramanjooloo, R. Wainscoat, R. Weryk.  1.8-m Ritchey-Chretien + CCD.
    G17 BAS Observatory, Scandicci.  Observer L. Grazzini.  0.20-m f/10 Schmidt-
        Cassegrain + CCD + f/6.3 focal reducer.
    I52 Steward Observatory, Mt. Lemmon Station.  Observer H. Groeller.  Measurers
        E. J. Christensen, D. Fay, J. B. Fazekas, D. C. Fuls, A. R. Gibbs, A. D.
        Grauer, H. Groeller, J. K. Hogan, R. A. Kowalski, S. M. Larson, G. J.
        Leonard, D. Rankin, R. L. Seaman, A. Serrano, F. C. Shelly, K. W.
        Wierzchos.  1.0-m prime focus + CCD.
    K96 Savelli Observatory.  Observers A. Brosio, A. De Pieri.  Measurer A. De
        Pieri.  0.50-m f/8 reflector + CCD.
    L01 Visnjan Observatory, Tican.  Observers K. Korlevic, I. Lyon.  Measurer K.
        Korlevic.  1.0-m f/2.9 reflector + CCD.
    
    Orbital elements:
    2022 KX                                                  Earth MOID = 0.0050 AU
    Epoch 2022 Jan. 21.0 TT = JDT 2459600.5                 Veres                   
    M 303.19797              (2000.0)            P               Q                  
    n   0.33493680     Peri.   70.97610     +0.67470168     +0.72794156             
    a   2.0534973      Node   242.07886     -0.71842794     +0.60980602             
    e   0.6286560      Incl.    7.93492     -0.16923042     +0.31342895             
    P   2.94           H   25.82          G   0.15           U   7                  
    Residuals in seconds of arc
    220522 F52  0.0   0.0     220523 I52  0.2+  0.2+    220523 K96  0.2-  0.0
    220522 F52  0.0   0.0     220523 I52  0.3+  0.1+    220523 595  0.6-  0.5-
    220523 703  0.8-  0.7+    220523 221  0.5-  0.8+    220523 K96  0.1-  0.3+
    220523 703  0.4+  0.6-    220523 221  0.4-  0.4+    220523 K96  0.1-  0.4-
    220523 703  0.1-  0.1+    220523 221  0.3-  0.1+    220523 C95  0.3+  0.1-
    220523 703  0.0   0.1-    220523 L01  0.5+  0.8-    220523 G17  0.2+  0.1+
    220523 I52  0.2+  0.0     220523 L01  0.2-  0.4-    220523 C95  0.5-  0.1+
    220523 I52  0.0   0.2-    220523 L01  0.2+  0.7-    220523 G17  0.6-  0.2+
    220523 I52  0.0   0.0     220523 L01  0.4+  0.5-    220523 104  0.0   0.3-
    220523 I52  0.1+  0.1+    220523 L01  0.1+  0.4-    220523 104  0.2+  0.5+
    220523 I52  0.1+  0.1-    220523 595  0.2+  0.3+
    220523 I52  0.2+  0.0     220523 595  0.2-  0.0
    
    Ephemeris:
    2022 KX                  a,e,i = 2.05, 0.63, 8                   q = 0.7626
    Date    TT    R. A. (2000) Decl.     Delta      r    Elong.  Phase     V
    2022 04 23    15 03 35.1 -30 49 24   0.3432  1.3273   156.6    17.5    25.0
    ...
    2022 05 08    15 02 36.6 -31 00 37   0.1773  1.1819   165.9    12.0    23.2
    ...
    2022 05 16    14 58 54.2 -29 42 26   0.09635 1.1051   167.2    11.7    21.7
    ...
    2022 05 22    14 48 44.2 -24 14 30   0.03779 1.0486   164.4    15.0    19.6
    2022 05 23    14 43 35.2 -21 05 39   0.02825 1.0394   162.7    16.9    19.1
    2022 05 24    14 33 57.1 -14 46 11   0.01892 1.0302   158.3    21.3    18.3
    ...
    2022 05 30    03 23 44.5 +41 27 35   0.04097 0.9763    23.7   155.3    28.4
    ...
    2022 06 07    03 12 47.4 +35 49 21   0.1194  0.9095    26.5   150.1    29.5
    ...
    2022 06 22    03 21 02.1 +33 32 22   0.2773  0.8099    36.4   131.9    28.5
    
    M. P. C. Staff               (C) Copyright 2022 MPC           M.P.E.C. 2022-K57
    


    Read MPEC 2022-K56 Read MPEC 2022-K58


    MPEC number:

    Enter an MPEC number in one of the following forms:

    • 1997-B01 (the full form)
    • J97B01 (the packed version of the full form)
    • B01 (the abbreviated form)